This is the latest recevied weather packets stored in our database for station/object KC5L-7. If no packets are shown the sender has not sent any weather packets the latest 10 day(s).
| Time | Temp. | Humidity | Pressure | Rain* | Wind** | Luminosity | Snow |
|---|---|---|---|---|---|---|---|
| 1777740898 | 20° C | 43% | 1021.1 hPa | 0 mm | - | - | - |
| 1777740298 | 19.44° C | 44% | 1021 hPa | 0 mm | - | - | - |
| 1777739698 | 19.44° C | 44% | 1021 hPa | 0 mm | - | - | - |
| 1777739097 | 19.44° C | 47% | 1021.1 hPa | 0 mm | - | - | - |
| 1777738498 | 18.89° C | 49% | 1021 hPa | 0 mm | - | - | - |
| 1777737898 | 18.89° C | 53% | 1021 hPa | 0 mm | - | - | - |
| 1777737298 | 18.89° C | 52% | 1020.9 hPa | 0 mm | - | - | - |
| 1777736698 | 18.33° C | 53% | 1021.1 hPa | 0 mm | - | - | - |
| 1777736098 | 17.78° C | 54% | 1021 hPa | 0 mm | - | - | - |
| 1777735498 | 17.78° C | 56% | 1021 hPa | 0 mm | - | - | - |
| 1777734898 | 17.22° C | 56% | 1021 hPa | 0 mm | - | - | - |
| 1777734298 | 17.22° C | 58% | 1020.9 hPa | 0 mm | - | - | - |
| 1777733699 | 16.67° C | 59% | 1020.9 hPa | 0 mm | - | - | - |
| 1777733098 | 16.11° C | 60% | 1020.9 hPa | 0 mm | - | - | - |
| 1777732498 | 16.11° C | 62% | 1020.7 hPa | 0 mm | - | - | - |
| 1777731898 | 15.56° C | 65% | 1020.6 hPa | 0 mm | - | - | - |
| 1777731298 | 15° C | 67% | 1020.6 hPa | 0 mm | - | - | - |
| 1777730697 | 14.44° C | 68% | 1020.6 hPa | 0 mm | - | - | - |
| 1777730098 | 13.89° C | 69% | 1020.7 hPa | 0 mm | - | - | - |
| 1777729498 | 13.89° C | 72% | 1020.6 hPa | 0 mm | - | - | - |
| 1777728899 | 13.33° C | 75% | 1020.5 hPa | 0 mm | - | - | - |
| 1777727699 | 12.78° C | 76% | 1020.4 hPa | 0 mm | - | - | - |
| 1777726498 | 12.22° C | 79% | 1020.2 hPa | 0 mm | - | - | - |
| 1777725898 | 11.67° C | 80% | 1020 hPa | 0 mm | - | - | - |
| 1777725298 | 11.67° C | 81% | 1020 hPa | 0 mm | - | - | - |
* Rain latest hour (hover to see other rain measurements)
** Current wind speed in m/s (hover to see current wind gust speed)